Regional Weather Roundup
Issued by NWS Kansas City/Pleasant Hill, MO

Home | Current Version | Previous Version | Text Only | Print | Product List | Glossary On
Versions: 1 2 3 4 5 6 7 8 9 10 11 12 13 14 15 16 17 18 19 20 21 22 23 24 25 26 27 28 29 30 31 32 33 34 35 36 37 38 39 40 41 42 43 44 45 46 47 48 49 50
704
ASUS43 KEAX 272010
RWREAX

WEATHER ROUNDUP FOR EASTERN KANSAS AND NORTHWEST MISSOURI
NATIONAL WEATHER SERVICE KANSAS CITY/PLEASANT HILL MO
300 PM CDT FRI MAY 27 2016

KSZ040-057-103>105-MOZ028-029-037-043-272100-
...KANSAS CITY METROPOLITAN AREA...

CITY           SKY/WX    TMP DP  RH WIND       PRES   REMARKS
K.C. INTL      CLOUDY    77  64  64 W3        29.75R
K.C. DOWNTOWN  PTSUNNY   81  65  58 S6        29.72S
LEES SUMMIT    CLOUDY    79  67  66 SE8       29.75S
OLATHE - IXD   CLOUDY    74  66  76 SW13      29.76R
OLATHE - OJC   CLOUDY    76  65  68 SW10      29.75R
LAWRENCE       LGT RAIN  73  66  78 SW7       29.74R

$$

MOZ001>008-011>017-020>025-030>033-038>040-044>046-053-054-272100-
...NORTHERN AND CENTRAL MISSOURI...

CITY           SKY/WX    TMP DP  RH WIND       PRES   REMARKS
ST. JOSEPH     LGT RAIN  73  65  75 S5        29.74S
MOSBY          PTCLDY    79  63  57 SE7       29.74S
WARRENSBURG    MOSUNNY   79  66  65 S10G16    29.74S
WHITEMAN AFB   CLOUDY    80  69  68 S13       29.74S
CLINTON        MOSUNNY   79  68  69 S13       29.75S
SEDALIA        MOSUNNY   81  68  64 S9        29.76F
WARSAW         NOT AVBL
CHILLICOTHE      N/A     81  67  62 VRB3      29.74F
KIRKSVILLE     MOSUNNY   81  67  62 S12       29.76F

$$

MOZ041-047>049-056>058-063>065-088>090-097-272100-
...EASTERN AND SOUTHERN MISSOURI...

CITY           SKY/WX    TMP DP  RH WIND       PRES   REMARKS
ST. LOUIS INTL CLOUDY    77  68  73 S13G21    29.83F
SPIRIT OF STL  CLOUDY    76  69  79 VRB7G18   29.80F
COLUMBIA       CLOUDY    78  68  71 S12       29.77F
JEFFERSON CITY CLOUDY    78  68  71 S8        29.75F
SPRINGFIELD    LGT RAIN  74  67  78 S16       29.78F
BRANSON        CLOUDY    72  66  83 SE6       29.80F
JOPLIN         LGT RAIN  71  65  81 S9        29.75F
WEST PLAINS    LGT RAIN  72  67  84 S8        29.83F

$$

IAZ060-094-KSZ022-034>040-054-083-096-NEZ052-066-093-272100-
...KANSAS...SOUTHEAST NEBRASKA AND IOWA...

CITY           SKY/WX    TMP DP  RH WIND       PRES   REMARKS
TOPEKA         CLOUDY    73  65  75 SE9       29.74R
MANHATTAN      PTSUNNY   77  64  64 S10       29.69F
EMPORIA        PTSUNNY   71  65  81 S9        29.71F
CHANUTE        LGT RAIN  73  66  78 S7        29.75R
WICHITA        PTSUNNY   78  67  68 VRB3      29.67F THUNDER
OMAHA          PTSUNNY   76  61  59 E7        29.73F
LINCOLN        MOSUNNY   76  59  55 VRB3      29.74F
FALLS CITY     MOSUNNY   77  64  64 CALM      29.72F
LAMONI         SUNNY     75  65  70 NW6       29.76S
DES MOINES     PTSUNNY   74  64  71 W8        29.75S

$$





USA.gov is the U.S. government's official web portal to all federal, state and local government web resources and services.